Skip Page Navigation
NASA JPL Caltech
NASA Logo - Jet Propulsion Laboratory + View the NASA Portal
+ Near-Earth Object (NEO) Program
Search JPL
JPL Home Earth Solar System Stars & Galaxies Technology
JPL Solar System Dynamics
BODIES ORBITS EPHEMERIDES TOOLS PHYSICAL DATA DISCOVERY FAQ SITE MAP
JPL Small-Body Database Browser
Search: [ help ]  
7400 Lenau (1987 QW1)
Classification: Main-belt Asteroid          SPK-ID: 2007400
Ephemeris | Orbit Diagram | Orbital Elements | Physical Parameters | Discovery Circumstances ]

[ show orbit diagram ]
Orbital Elements at Epoch 2456400.5 (2013-Apr-18.0) TDB
Reference: MPO233560 (heliocentric ecliptic J2000)
 Element Value Uncertainty (1-sigma)   Units 
e 0.0967508 n/a  
a 2.9567003 n/a AU
q 2.6706372 n/a AU
i 1.96699 n/a deg
node 160.99518 n/a deg
peri 181.56841 n/a deg
M 3.46652 n/a deg
tp 2456382.6186380
(2013-Mar-31.11863800)
n/a JED
period 1856.9892355
5.08
n/a
n/a
d
yr
n 0.19386219 n/a deg/d
Q 3.2427634 n/a AU
  Orbit Determination Parameters
   # obs. used (total)      889  
   first obs. used      1977-??-??  
   last obs. used      2012-06-23  
   # oppositions      21  
   planetary ephem.      DE403  
   condition code      0  
   fit RMS      0.56  
   data source      MPC:mpn  
   producer      MPCLINUX  

Additional Information
 T_jup = 3.260 

Ephemeris | Orbit Diagram | Orbital Elements | Physical Parameters | Discovery Circumstances ]

Physical Parameter Table
Parameter Symbol Value Units Sigma Reference Notes
absolute magnitude H 13.1 mag n/a PDS3 (MPC 28826)  

7400 Lenau           Discovered 1987 Aug. 21 by E. W. Elst at the European Southern Observatory.
Nikolaus Lenau (N. F. Niembsch von Strehlenau, 1802-1850) was an Austrian poet. Unable to settle down to any profession, he started writing verses. Many poems (e.g., Herbst, Schilflieder) were inspired by his hopeless passion for Sophie von Löwenthal. Liszt used his Faust to compose the Mephisto Walzer.
NOTE: some special characters may not display properly (any characters within {} are an attempt to place the proper accent above a character)
Reference: 20070601/MPCPages.arcLast Updated: 2007-06-06

Alternate Designations
 1987 QW1 = 1977 UV = 1982 QV1 
Ephemeris | Orbit Diagram | Orbital Elements | Physical Parameters | Discovery Circumstances ]
ABOUT SSD CREDITS/AWARDS PRIVACY/COPYRIGHT GLOSSARY LINKS
FirstGov 2013-May-24 15:19 UT
(server date/time)  
NASA Home Page
Site Manager:   Donald K. Yeomans
Webmaster  Alan B. Chamberlin